Regional Weather Roundup
Issued by NWS Bismarck, ND

Home | Current Version | Previous Version | Graphics & Text | Print | Product List | Glossary On
Versions: 1 2 3 4 5 6 7 8 9 10 11 12 13 14 15 16 17 18 19 20 21 22 23 24 25 26 27 28 29 30 31 32 33 34 35 36 37 38 39 40 41 42 43 44 45 46 47 48 49 50
000
ASUS43 KBIS 250910
RWRBIS

NWR BROADCAST TEXT
NATIONAL WEATHER SERVICE BISMARCK ND
300 AM CST SAT NOV 25 2017

NOTE: "FAIR" INDICATES FEW OR NO CLOUDS BELOW 12,000 FEET WITH NO
SIGNIFICANT WEATHER AND/OR OBSTRUCTIONS TO VISIBILITY.


CITY           SKY/WX    TMP DP  RH WIND       PRES   REMARKS
WILLISTON      CLEAR     27  22  81 W3        29.95R
MINOT          CLEAR     28  25  88 SW9       29.94R WCI  19
MINOT AFB      CLEAR     22  21  93 SW8       29.92R WCI  13
BISMARCK       PTCLDY    29  26  89 CALM      29.97R
DICKINSON      CLOUDY    33  25  72 W12       29.96R
GARRISON         N/A     26  24  92 CALM      29.95R
HETTINGER ARPT CLOUDY    25  21  85 NW7       30.02R WCI  17
JAMESTOWN      CLEAR     27  25  92 W8        29.94R WCI  19
CARRINGTON     FAIR      32  30  93 NW10      29.96R
HAZEN          FAIR      27  25  93 SW7       29.98R WCI  19
LINTON           N/A     23  18  80 SW6       29.99R WCI  16
MANDAN         FAIR      27  23  86 W8        29.97R WCI  18
OAKES            N/A     28  28 100 NW7       29.96R
RUGBY          FAIR      23  23 100 CALM      29.93R
STANLEY        FAIR      27  27 100 CALM      29.95R
TIOGA          FAIR      21  21 100 SW6       29.95R WCI  14
WATFORD CITY   FAIR      27  23  86 CALM      29.96R
$$

CITY           SKY/WX    TMP DP  RH WIND       PRES   REMARKS
GRAND FORKS    CLOUDY    25  19  78 N15       29.97R WCI  13
GRAND FORKS AF CLOUDY    25  18  74 NE9       29.98R WCI  15
DEVILS LAKE    PTCLDY    26  22  84 N8        29.95R WCI  18
FARGO          PTCLDY    26  23  88 N9        29.94R WCI  17
CANDO          CLOUDY    25  25 100 N9        29.96R WCI  15
CAVALIER       CLOUDY    19  12  73 N13       29.98R WCI   7
GRAFTON        CLOUDY    21  16  79 N13       30.00R WCI   9
GWINNER          N/A     28  27  93 W6        29.95R
LANGDON        FAIR      19  19 100 N7        29.93R WCI  10
ROLLA          CLOUDY    27  19  74 NW13      29.93R WCI  16
WALHALLA       FAIR      19  19 100 N10       29.98R WCI   8
$$

CITY           SKY/WX    TMP DP  RH WIND       PRES   REMARKS
ABERDEEN       CLEAR     24  23  96 NE3       29.98R
MOBRIDGE       CLOUDY    32  27  81 NW9       29.97R
BUFFALO          N/A     30  23  75 W12       29.97R
RAPID CITY     CLEAR     28  18  66 W7        30.06R
GLASGOW        CLEAR     28  24  85 N12       29.97S WCI  18
SIDNEY         CLOUDY    36  26  67 W18       29.97R
WOLF POINT     CLOUDY    28  23  81 S5        29.99R
GLENDIVE       CLOUDY    33  24  69 W12       30.01R
MILES CITY     PTCLDY    30  25  81 SW7       30.05R
BAKER          CLEAR     31  25  78 W12       30.03R
$$

CITY           SKY/WX    TMP DP  RH WIND       PRES   REMARKS
BILLINGS       CLEAR     33  23  66 SW13      30.05R
GREAT FALLS    CLOUDY    34  17  50 SW9       29.98F
REGINA         CLEAR     21  19  93 SW8       29.89S WCI  12
ESTEVAN        CLEAR     19  18  93 NW2       29.92S
$$





USA.gov is the U.S. government's official web portal to all federal, state and local government web resources and services.